Location: Waltman Observatory
(32.5145°N, 90.4450°W)
Time: 02:45:22
(UTC-05:00)

Amateur Radio Satellites - All Passes

Search period start: 27 July 2016 02:15
Search period end: 28 July 2016 02:15
Location: Waltman Observatory, 32.5145°N, 90.4450°W

Satellite Date Start Highest point End Downlink Frequencies (MHz)
Time Altitude Azimuth
ITUPSAT 1 27 Jul 02:24:44 02:29:22 51° 73° (ENE) 02:34:01 437.325
Oscar 19 27 Jul 02:31:57 02:37:09 89° 281° (W) 02:42:21 437.125/150
GONETS M04 27 Jul 02:45:03 02:53:41 56° 80° (E) 03:02:19
JUGNU 27 Jul 03:11:37 03:16:12 23° 176° (S) 03:20:47 437.505
SWISSCUBE 27 Jul 03:18:24 03:22:45 34° 261° (W) 03:27:07 437.505
CUSAT 1 27 Jul 03:34:32 03:38:48 35° 97° (E) 03:42:10 437.405
Cosmos 2499 27 Jul 03:37:36 03:45:22 87° 84° (E) 03:52:35 435.465 / 435.565
BEESAT 27 Jul 03:40:32 03:44:16 23° 264° (W) 03:48:01 436.000
SRMSAT 27 Jul 03:40:36 03:43:59 16° 166° (SSE) 03:47:23 437.500
KKS-1 27 Jul 03:49:52 03:54:05 45° 74° (ENE) 03:58:19 437.445
Gurwin Techsat 1B 27 Jul 03:50:21 03:55:10 36° 289° (WNW) 03:59:57 435.225
DANDE 27 Jul 03:53:49 03:58:49 26° 96° (E) 04:02:51 436.750
AO-7 27 Jul 03:57:49 04:05:20 36° 100° (E) 04:12:46 29.400- 29.500
BEESAT 3 27 Jul 04:03:09 04:07:03 53° 60° (ENE) 04:10:54 437.485
ITUPSAT 1 27 Jul 04:05:17 04:07:25 13° 267° (W) 04:09:33 437.325
ITAMSAT 1 27 Jul 04:05:44 04:10:56 81° 284° (WNW) 04:16:06 435.822/435.867
BEESAT 2 27 Jul 04:09:00 04:12:35 31° 57° (ENE) 04:16:08 435.950
MOZHAYETS 4 27 Jul 04:22:13 04:26:50 71° 258° (WSW) 04:31:28
STARS 27 Jul 04:29:02 04:33:21 62° 75° (ENE) 04:37:42 437.465
ISS 27 Jul 04:33:47 04:36:50 36° 40° (NE) 04:39:53 145.825
GONETS M04 27 Jul 04:43:02 04:49:51 26° 276° (W) 04:56:42
JUGNU 27 Jul 05:00:11 05:04:39 22° 186° (S) 05:09:05 437.505
HORYU 2 27 Jul 05:10:08 05:13:31 21° 96° (E) 05:16:54 437.375
PCSat 27 Jul 05:13:52 05:19:16 67° 64° (ENE) 05:24:38 145.827
CUSAT 1 27 Jul 05:20:00 05:20:34 10° 281° (W) 05:21:06 437.405
SRMSAT 27 Jul 05:28:00 05:32:32 23° 176° (S) 05:37:03 437.500
KKS-1 27 Jul 05:28:59 05:30:49 12° 267° (W) 05:32:40 437.445
Cosmos 2499 27 Jul 05:34:53 05:37:07 11° 282° (WNW) 05:39:20 435.465 / 435.565
BRITE-PL 27 Jul 05:36:06 05:37:47 11° 93° (E) 05:39:28 437.365/2234.400
DANDE 27 Jul 05:36:21 05:41:26 28° 279° (W) 05:45:29 436.750
CUBESAT XI-V 27 Jul 05:41:05 05:45:43 88° 262° (W) 05:50:21 437.345
BEESAT 2 27 Jul 05:47:37 05:50:07 16° 251° (WSW) 05:52:37 435.950
AO-7 27 Jul 05:50:20 05:58:02 43° 295° (WNW) 06:05:42 29.400- 29.500
NOAA 15 27 Jul 06:04:56 06:08:28 18° 95° (E) 06:12:01 137.62
AIST 2 27 Jul 06:08:12 06:11:49 28° 56° (NE) 06:15:25 435.215
ISS 27 Jul 06:11:12 06:13:00 14° 233° (SW) 06:14:47 145.825
NOAA 18 27 Jul 06:19:03 06:22:51 19° 95° (E) 06:26:37 137.9125
RS-15 27 Jul 06:27:52 06:38:43 56° 109° (ESE) 06:50:08 29.354- 29.394
GOMX 1 27 Jul 06:36:57 06:41:12 25° 96° (E) 06:45:34 467.674
HORYU 2 27 Jul 06:46:14 06:50:00 27° 289° (WNW) 06:53:44 437.375
JUGNU 27 Jul 06:50:11 06:53:00 14° 196° (SSW) 06:55:49 437.505
LilacSat-2 27 Jul 06:52:13 06:55:51 39° 99° (E) 06:59:27 437.200
Cubesat XI-IV 27 Jul 06:59:07 07:04:17 48° 100° (E) 07:09:24 437.490
PCSat 27 Jul 06:59:57 07:02:00 12° 257° (WSW) 07:04:02 145.827
O/OREOS (USA 219) 27 Jul 07:00:52 07:05:21 61° 69° (ENE) 07:09:52 437.305
STRAND 1 27 Jul 07:07:24 07:12:15 43° 72° (ENE) 07:17:06 437.568
SO-50 27 Jul 07:07:26 07:10:35 17° 109° (ESE) 07:13:46 436.795
BRITE-PL 27 Jul 07:11:32 07:16:24 64° 284° (WNW) 07:21:39 437.365/2234.400
SRMSAT 27 Jul 07:16:41 07:21:07 22° 186° (S) 07:25:32 437.500
CUTE-I 27 Jul 07:22:40 07:28:02 86° 103° (ESE) 07:33:21 437.470
HO-68 27 Jul 07:32:55 07:36:02 13° 92° (E) 07:39:08 435.675
NOAA 15 27 Jul 07:43:24 07:48:22 43° 288° (WNW) 07:53:19 137.62
AIST 2 27 Jul 07:47:02 07:50:05 20° 250° (WSW) 07:53:08 435.215
NOAA 18 27 Jul 07:58:24 08:03:39 46° 288° (WNW) 08:08:52 137.9125
CANX-2 27 Jul 08:03:09 08:06:02 18° 95° (E) 08:08:55 2200.000
DOVE 4 27 Jul 08:07:28 08:12:41 82° 284° (WNW) 08:18:00 437.250
Cosmos 2491 27 Jul 08:14:11 08:21:32 29° 74° (ENE) 08:28:50 435.465 / 435.565
GOMX 1 27 Jul 08:14:38 08:19:10 32° 288° (WNW) 08:23:54 467.674
CUTE 1.7 + AOD 2 27 Jul 08:16:13 08:19:32 22° 96° (E) 08:22:50 437.475
CINEMA 3 27 Jul 08:19:57 08:24:36 37° 98° (E) 08:29:09 145.822/145.860
LilacSat-2 27 Jul 08:28:40 08:29:44 11° 292° (WNW) 08:30:47 437.200
PRISM 27 Jul 08:37:42 08:41:35 44° 74° (ENE) 08:45:27 437.425
Cubesat XI-IV 27 Jul 08:40:29 08:43:54 18° 294° (WNW) 08:47:19 437.490
RS-15 27 Jul 08:40:56 08:51:27 40° 311° (NW) 09:02:35 29.354- 29.394
SO-50 27 Jul 08:46:04 08:50:43 44° 302° (WNW) 08:55:22 436.795
STRAND 1 27 Jul 08:48:09 08:51:32 18° 266° (W) 08:54:56 437.568
SEEDS 27 Jul 08:54:51 08:58:52 47° 99° (E) 09:02:51 437.485
UWE-3 27 Jul 09:05:57 09:09:19 20° 94° (E) 09:12:36 435.000/436.395/437.385
COMPASS 1 27 Jul 09:06:41 09:10:37 43° 99° (E) 09:14:33 437.405
SRMSAT 27 Jul 09:06:46 09:09:38 14° 195° (SSW) 09:12:30 437.500
FUNcube-1 27 Jul 09:07:31 09:08:40 11° 92° (E) 09:09:49 145.935
ZACube-1 27 Jul 09:07:51 09:09:39 12° 92° (E) 09:11:27 437.345
HO-68 27 Jul 09:17:09 09:24:23 85° 286° (WNW) 09:31:34 435.675
CUBEBUG 2 27 Jul 09:27:06 09:31:44 56° 100° (E) 09:36:12 437.445
Cosmos 2504 27 Jul 09:29:19 09:31:41 11° 77° (ENE) 09:34:03 435.465 / 435.565
TIGRISAT 27 Jul 09:30:07 09:32:07 13° 66° (ENE) 09:34:07 435.000
AAUSAT CUBESAT 2 27 Jul 09:34:51 09:38:58 80° 102° (ESE) 09:43:03 437.432
YUBILEINY 27 Jul 09:35:57 09:44:17 51° 90° (E) 09:52:42 435.215
CANX-2 27 Jul 09:38:17 09:41:52 27° 288° (WNW) 09:45:25 2200.000
UNISAT 6 27 Jul 09:44:57 09:48:19 20° 69° (ENE) 09:51:44 437.425
Oscar 11 27 Jul 09:47:22 09:51:24 38° 99° (E) 09:55:24 145.826/435.025
CUTE 1.7 + AOD 2 27 Jul 09:51:58 09:55:14 22° 289° (WNW) 09:58:30 437.475
AUBIESAT-1 27 Jul 09:57:33 09:58:05 10° 96° (E) 09:58:36 437.475
CINEMA 3 27 Jul 09:57:46 10:01:23 20° 291° (WNW) 10:04:59 145.822/145.860
DELFI C3 27 Jul 09:58:13 10:01:04 19° 95° (E) 10:03:55 145.870
Cosmos 2491 27 Jul 10:10:13 10:18:33 51° 270° (W) 10:26:55 435.465 / 435.565
PRISM 27 Jul 10:16:28 10:17:03 10° 267° (W) 10:17:38 437.425
HUMSAT D 27 Jul 10:21:04 10:23:46 17° 94° (E) 10:26:27 437.325/437.525
ANTELSAT 27 Jul 10:22:08 10:26:35 53° 75° (ENE) 10:31:10 437.575/2403.000
SEEDS 27 Jul 10:32:58 10:34:05 11° 293° (WNW) 10:35:12 437.485
FUNcube-1 27 Jul 10:40:52 10:45:10 49° 285° (WNW) 10:49:21 145.935
UWE-3 27 Jul 10:41:47 10:45:44 29° 289° (WNW) 10:49:36 435.000/436.395/437.385
ZACube-1 27 Jul 10:41:53 10:46:09 45° 286° (WNW) 10:50:18 437.345
COMPASS 1 27 Jul 10:44:21 10:45:44 11° 292° (WNW) 10:47:07 437.405
NANOSAT C BR1 27 Jul 10:55:20 10:57:48 15° 68° (ENE) 11:00:18 145.865
DUCHIFAT 1 27 Jul 10:59:27 11:02:01 16° 69° (ENE) 11:04:37 145.980
M-CUBED/EXP-1 PRIME 27 Jul 11:02:04 11:06:48 79° 106° (ESE) 11:11:27 437.505
TIGRISAT 27 Jul 11:03:47 11:08:15 52° 260° (W) 11:12:49 435.000
RS-15 27 Jul 11:04:10 11:08:53 13° 342° (NNW) 11:13:40 29.354- 29.394
CUBEBUG 2 27 Jul 11:06:05 11:07:45 12° 294° (WNW) 11:09:25 437.445
HO-68 27 Jul 11:07:59 11:11:01 13° 302° (WNW) 11:14:02 435.675
Cosmos 2504 27 Jul 11:14:46 11:23:33 77° 93° (E) 11:32:25 435.465 / 435.565
QB50P1 27 Jul 11:16:28 11:20:08 29° 72° (ENE) 11:23:49 145.935-145.965
UNISAT 6 27 Jul 11:20:41 11:24:46 31° 263° (W) 11:28:56 437.425
POPSAT HIP 1 27 Jul 11:22:44 11:26:33 34° 73° (ENE) 11:30:25 437.405
Oscar 11 27 Jul 11:24:52 11:27:09 14° 292° (WNW) 11:29:25 145.826/435.025
AUBIESAT-1 27 Jul 11:28:12 11:32:49 64° 289° (WNW) 11:37:20 437.475
DELFI C3 27 Jul 11:32:43 11:35:49 22° 288° (WNW) 11:38:54 145.870
YUBILEINY 27 Jul 11:33:58 11:41:17 29° 286° (WNW) 11:48:42 435.215
QB50P2 27 Jul 11:43:16 11:47:28 69° 76° (ENE) 11:51:44 145.880/145.840
JAS-2 27 Jul 11:44:50 11:49:32 23° 69° (ENE) 11:53:51 435.910
POLYITAN 1 27 Jul 11:45:53 11:50:06 71° 76° (ENE) 11:54:23 437.675
HUMSAT D 27 Jul 11:55:47 11:59:23 29° 288° (WNW) 12:02:57 437.325/437.525
AISAT 27 Jul 11:59:24 12:02:53 22° 96° (E) 12:06:20 437.250
DX 1 27 Jul 11:59:37 12:01:57 14° 94° (E) 12:04:16 434.975-435.025
ANTELSAT 27 Jul 12:02:03 12:03:34 11° 268° (W) 12:05:05 437.575/2403.000
UKube-1 27 Jul 12:12:46 12:15:22 16° 95° (E) 12:17:58 .
NANOSAT C BR1 27 Jul 12:29:21 12:33:11 34° 262° (W) 12:37:05 145.865
DUCHIFAT 1 27 Jul 12:33:36 12:37:24 33° 262° (W) 12:41:14 145.980
ESTCUBE 1 27 Jul 12:34:08 12:38:37 79° 283° (WNW) 12:43:05 437.505/2401.250
AO-85 27 Jul 12:41:43 12:45:16 18° 108° (ESE) 12:48:46 145.980
SPROUT 27 Jul 12:44:41 12:48:34 31° 98° (E) 12:52:23 437.525
BUGSAT 1 27 Jul 12:47:09 12:51:07 55° 259° (W) 12:55:11 437.445
VELOX 1 27 Jul 12:50:03 12:54:31 87° 103° (ESE) 12:58:58 145.980
CUBEBUG 1 27 Jul 12:50:50 12:55:14 77° 284° (WNW) 12:59:38 437.445
50 SAT 27 Jul 12:51:50 12:55:25 70° 283° (WNW) 12:58:58 437.505
QB50P1 27 Jul 12:53:02 12:55:52 18° 265° (W) 12:58:45 145.935-145.965
POPSAT HIP 1 27 Jul 12:59:58 13:02:23 15° 266° (W) 13:04:51 437.405
Cosmos 2504 27 Jul 13:11:42 13:17:41 20° 290° (WNW) 13:23:42 435.465 / 435.565
AIST 1 27 Jul 13:12:14 13:16:05 35° 91° (E) 13:19:57
RS-15 27 Jul 13:23:56 13:29:41 14° 22° (NNE) 13:35:25 29.354- 29.394
Gurwin Techsat 1B 27 Jul 13:27:53 13:32:02 24° 68° (ENE) 13:36:10 435.225
JAS-2 27 Jul 13:28:32 13:34:24 40° 260° (W) 13:39:41 435.910
DX 1 27 Jul 13:34:10 13:38:14 38° 287° (WNW) 13:42:17 434.975-435.025
AISAT 27 Jul 13:35:33 13:39:15 26° 289° (WNW) 13:42:57 437.250
TISAT 1 27 Jul 13:39:29 13:43:12 29° 98° (E) 13:46:54 437.305
Oscar 19 27 Jul 13:44:08 13:49:14 83° 77° (ENE) 13:54:22 437.125/150
UKube-1 27 Jul 13:47:32 13:51:27 34° 288° (WNW) 13:55:22 .
BEESAT 27 Jul 14:10:16 14:10:37 10° 92° (E) 14:10:59 436.000
CUSAT 1 27 Jul 14:12:59 14:13:42 10° 80° (E) 14:14:27 437.405
Cosmos 2499 27 Jul 14:19:49 14:23:07 13° 79° (ENE) 14:26:24 435.465 / 435.565
AO-85 27 Jul 14:20:08 14:25:24 51° 301° (WNW) 14:30:29 145.980
SPROUT 27 Jul 14:21:23 14:24:12 17° 291° (WNW) 14:27:03 437.525
ITUPSAT 1 27 Jul 14:30:47 14:34:08 19° 95° (E) 14:37:27 437.325
AIST 1 27 Jul 14:51:39 14:53:46 13° 285° (WNW) 14:55:53
AO-7 27 Jul 14:52:02 14:59:17 34° 63° (ENE) 15:06:33 29.400- 29.500
Gurwin Techsat 1B 27 Jul 15:06:55 15:11:43 35° 262° (W) 15:16:34 435.225
TISAT 1 27 Jul 15:15:41 15:18:36 18° 291° (WNW) 15:21:30 437.305
ITAMSAT 1 27 Jul 15:18:55 15:24:09 85° 257° (WSW) 15:29:24 435.822/435.867
SWISSCUBE 27 Jul 15:22:36 15:27:23 86° 105° (ESE) 15:32:07 437.505
RS-15 27 Jul 15:35:02 15:46:44 45° 52° (NE) 15:58:10 29.354- 29.394
GONETS M04 27 Jul 15:39:54 15:48:31 75° 93° (E) 15:57:12
BEESAT 27 Jul 15:44:01 15:48:43 61° 285° (WNW) 15:53:23 436.000
KKS-1 27 Jul 15:47:12 15:49:09 13° 93° (E) 15:51:06 437.445
CUSAT 1 27 Jul 15:52:41 15:55:29 25° 263° (W) 15:58:53 437.405
PHONESAT 2.4 27 Jul 15:55:36 15:58:18 29° 146° (SE) 16:01:01 2401.200-2431.200
HORYU 2 27 Jul 16:05:27 16:07:08 12° 66° (ENE) 16:08:50 437.375
Cosmos 2499 27 Jul 16:06:01 16:14:54 82° 93° (E) 16:23:40 435.465 / 435.565
ITUPSAT 1 27 Jul 16:07:41 16:11:59 34° 288° (WNW) 16:16:15 437.325
DANDE 27 Jul 16:18:45 16:21:18 37° 263° (W) 16:24:14 436.750
MOZHAYETS 4 27 Jul 16:22:03 16:26:17 37° 99° (E) 16:30:29
STARS 27 Jul 16:24:12 16:26:59 16° 95° (E) 16:29:45 437.465
AO-7 27 Jul 16:43:48 16:51:43 47° 258° (WSW) 16:59:42 29.400- 29.500
NOAA 15 27 Jul 17:20:50 17:24:28 19° 67° (ENE) 17:28:06 137.62
KKS-1 27 Jul 17:21:36 17:25:52 45° 287° (WNW) 17:30:09 437.445
SO-50 27 Jul 17:21:55 17:26:21 46° 59° (ENE) 17:30:39 436.795
PHONESAT 2.4 27 Jul 17:31:49 17:34:44 39° 339° (NNW) 17:37:40 2401.200-2431.200
LilacSat-2 27 Jul 17:32:08 17:33:13 11° 68° (ENE) 17:34:17 437.200
HORYU 2 27 Jul 17:38:49 17:43:11 52° 260° (W) 17:47:35 437.375
GONETS M04 27 Jul 17:40:25 17:46:06 19° 290° (WNW) 17:51:50
NOAA 18 27 Jul 17:40:42 17:45:02 24° 67° (ENE) 17:49:22 137.9125
CUBESAT XI-V 27 Jul 17:42:29 17:46:37 32° 98° (E) 17:50:44 437.345
GOMX 1 27 Jul 17:43:11 17:44:52 12° 67° (ENE) 17:46:36 467.674
RS-15 27 Jul 17:47:38 17:59:19 52° 251° (WSW) 18:10:43 29.354- 29.394
BEESAT 3 27 Jul 17:49:45 17:53:03 27° 112° (ESE) 17:56:24 437.485
BEESAT 2 27 Jul 17:57:38 18:00:07 16° 110° (ESE) 18:02:38 435.950
STARS 27 Jul 17:59:21 18:03:23 35° 288° (WNW) 18:07:23 437.465
MOZHAYETS 4 27 Jul 18:00:16 18:03:06 16° 292° (WNW) 18:05:55
Cosmos 2499 27 Jul 18:03:12 18:08:48 18° 290° (WNW) 18:14:24 435.465 / 435.565
PCSat 27 Jul 18:09:54 18:13:10 16° 104° (ESE) 18:16:27 145.827
Cubesat XI-IV 27 Jul 18:16:27 18:21:38 51° 73° (ENE) 18:26:50 437.490
BRITE-PL 27 Jul 18:18:37 18:22:47 89° 237° (WSW) 18:26:57 437.365/2234.400
CUTE-I 27 Jul 18:39:45 18:45:08 89° 74° (ENE) 18:50:32 437.470
NOAA 15 27 Jul 18:58:57 19:03:53 42° 261° (W) 19:08:50 137.62
LilacSat-2 27 Jul 19:03:27 19:07:05 40° 261° (W) 19:10:45 437.200
SO-50 27 Jul 19:04:07 19:06:19 13° 253° (WSW) 19:08:29 436.795
DOVE 4 27 Jul 19:08:45 19:12:53 56° 75° (ENE) 19:17:14 437.250
PHONESAT 2.4 27 Jul 19:09:29 19:11:44 18° 356° (N) 19:13:59 2401.200-2431.200
CINEMA 3 27 Jul 19:17:54 19:21:02 19° 68° (ENE) 19:24:16 145.822/145.860
GOMX 1 27 Jul 19:18:38 19:22:32 40° 262° (W) 19:26:34 467.674
NOAA 18 27 Jul 19:20:20 19:25:24 37° 261° (W) 19:30:31 137.9125
CUBESAT XI-V 27 Jul 19:20:27 19:23:44 20° 290° (WNW) 19:27:01 437.345
STRAND 1 27 Jul 19:23:17 19:27:06 21° 96° (E) 19:30:53 437.568
BEESAT 3 27 Jul 19:27:52 19:30:42 19° 306° (NW) 19:33:33 437.485
O/OREOS (USA 219) 27 Jul 19:32:21 19:33:59 12° 99° (E) 19:35:37 437.305
BEESAT 2 27 Jul 19:34:11 19:37:40 30° 303° (WNW) 19:41:12 435.950
HO-68 27 Jul 19:40:33 19:47:18 46° 69° (ENE) 19:54:04 435.675
SEEDS 27 Jul 19:42:51 19:45:48 19° 70° (ENE) 19:48:45 437.485
PCSat 27 Jul 19:50:48 19:56:04 52° 298° (WNW) 20:01:22 145.827
YUBILEINY 27 Jul 19:53:21 19:59:15 19° 70° (ENE) 20:05:05 435.215
COMPASS 1 27 Jul 19:53:55 19:56:38 17° 70° (ENE) 19:59:21 437.405
Cubesat XI-IV 27 Jul 19:58:45 20:01:55 16° 266° (W) 20:05:06 437.490
UWE-3 27 Jul 20:01:16 20:01:38 10° 65° (ENE) 20:02:02 435.000/436.395/437.385
AIST 2 27 Jul 20:02:18 20:04:59 17° 109° (ESE) 20:07:40 435.215
CUBEBUG 2 27 Jul 20:20:41 20:24:31 27° 71° (ENE) 20:28:26 437.445
AAUSAT CUBESAT 2 27 Jul 20:20:46 20:24:18 28° 73° (ENE) 20:27:51 437.432
CANX-2 27 Jul 20:25:27 20:29:44 73° 259° (WSW) 20:34:00 2200.000
Oscar 11 27 Jul 20:38:31 20:41:24 18° 69° (ENE) 20:44:19 145.826/435.025
CUTE 1.7 + AOD 2 27 Jul 20:38:51 20:43:04 58° 260° (W) 20:47:17 437.475
PHONESAT 2.4 27 Jul 20:46:16 20:48:51 24° 13° (NNE) 20:51:26 2401.200-2431.200
CINEMA 3 27 Jul 20:53:53 20:57:51 32° 263° (W) 21:02:01 145.822/145.860
STRAND 1 27 Jul 21:01:40 21:06:17 35° 289° (WNW) 21:10:52 437.568
O/OREOS (USA 219) 27 Jul 21:08:37 21:12:54 45° 292° (WNW) 21:17:12 437.305
Cosmos 2491 27 Jul 21:09:23 21:17:13 39° 87° (E) 21:25:01 435.465 / 435.565
ISS 27 Jul 21:09:41 21:12:51 51° 318° (NW) 21:16:02 145.825
Cosmos 2504 27 Jul 21:15:51 21:21:16 19° 69° (ENE) 21:26:26 435.465 / 435.565
SEEDS 27 Jul 21:17:39 21:21:16 28° 263° (W) 21:24:54 437.485
COMPASS 1 27 Jul 21:28:15 21:31:56 30° 263° (W) 21:35:36 437.405
HO-68 27 Jul 21:29:07 21:35:04 28° 263° (W) 21:41:05 435.675
FUNcube-1 27 Jul 21:30:54 21:35:22 70° 77° (ENE) 21:39:56 145.935
ZACube-1 27 Jul 21:32:09 21:36:39 78° 77° (ENE) 21:41:14 437.345
UWE-3 27 Jul 21:32:57 21:37:26 65° 259° (W) 21:42:04 435.000/436.395/437.385
AIST 2 27 Jul 21:39:31 21:43:10 31° 303° (WNW) 21:46:53 435.215
M-CUBED/EXP-1 PRIME 27 Jul 21:44:35 21:48:03 41° 69° (ENE) 21:51:48 437.505
YUBILEINY 27 Jul 21:48:00 21:56:49 75° 267° (W) 22:05:33 435.215
AAUSAT CUBESAT 2 27 Jul 21:56:56 21:59:45 18° 265° (W) 22:02:34 437.432
CUBEBUG 2 27 Jul 21:57:28 22:01:02 23° 265° (W) 22:04:43 437.445
PRISM 27 Jul 21:58:35 22:02:36 55° 285° (WNW) 22:06:37 437.425
AUBIESAT-1 27 Jul 22:09:53 22:13:34 73° 72° (ENE) 22:17:36 437.475
DELFI C3 27 Jul 22:12:56 22:16:55 78° 258° (WSW) 22:20:53 145.870
Oscar 11 27 Jul 22:13:23 22:17:16 31° 262° (W) 22:21:09 145.826/435.025
ANTELSAT 27 Jul 22:19:53 22:22:43 16° 94° (E) 22:25:30 437.575/2403.000
PHONESAT 2.4 27 Jul 22:22:30 22:25:34 79° 208° (SSW) 22:28:38 2401.200-2431.200
HUMSAT D 27 Jul 22:41:19 22:45:38 81° 260° (W) 22:49:58 437.325/437.525
AISAT 27 Jul 22:54:23 22:55:51 12° 66° (ENE) 22:57:19 437.250
AO-85 27 Jul 22:57:08 23:01:07 37° 57° (ENE) 23:04:50 145.980
TIGRISAT 27 Jul 23:00:03 23:04:29 46° 99° (E) 23:08:46 435.000
Cosmos 2491 27 Jul 23:06:01 23:13:53 38° 283° (WNW) 23:21:50 435.465 / 435.565
Cosmos 2504 27 Jul 23:07:25 23:15:19 65° 268° (W) 23:22:39 435.465 / 435.565
UNISAT 6 27 Jul 23:16:30 23:21:08 79° 103° (ESE) 23:25:36 437.425
50 SAT 27 Jul 23:25:18 23:28:14 23° 72° (ENE) 23:31:10 437.505
ESTCUBE 1 27 Jul 23:28:52 23:33:15 53° 75° (ENE) 23:37:37 437.505/2401.250
QB50P2 27 Jul 23:34:01 23:36:42 16° 95° (E) 23:39:21 145.880/145.840
SPROUT 27 Jul 23:35:13 23:37:28 14° 68° (ENE) 23:39:43 437.525
POLYITAN 1 27 Jul 23:36:37 23:39:21 16° 95° (E) 23:42:04 437.675
CUBEBUG 1 27 Jul 23:42:08 23:46:15 47° 74° (ENE) 23:50:24 437.445
VELOX 1 27 Jul 23:42:48 23:46:55 41° 73° (ENE) 23:51:02 145.980
ANTELSAT 27 Jul 23:55:18 23:59:31 36° 287° (WNW) 00:03:38 437.575/2403.000
NANOSAT C BR1 28 Jul 00:17:52 00:22:02 50° 100° (E) 00:26:09 145.865
DUCHIFAT 1 28 Jul 00:21:47 00:25:57 52° 100° (E) 00:30:05 145.980
DX 1 28 Jul 00:24:33 00:28:52 83° 260° (W) 00:33:13 434.975-435.025
AISAT 28 Jul 00:27:34 00:31:49 51° 260° (W) 00:36:06 437.250
TISAT 1 28 Jul 00:28:29 00:30:15 12° 67° (ENE) 00:32:03 437.305
BUGSAT 1 28 Jul 00:33:38 00:37:21 29° 97° (E) 00:41:03 437.445
UKube-1 28 Jul 00:36:50 00:41:07 77° 259° (WSW) 00:45:25 .
TIGRISAT 28 Jul 00:38:23 00:40:41 14° 293° (WNW) 00:42:57 435.000
AO-85 28 Jul 00:39:07 00:41:04 13° 253° (WSW) 00:42:58 145.980
QB50P1 28 Jul 00:40:39 00:44:55 77° 284° (WNW) 00:49:11 145.935-145.965
JAS-2 28 Jul 00:41:35 00:46:17 29° 99° (E) 00:51:21 435.910
POPSAT HIP 1 28 Jul 00:47:12 00:51:27 65° 284° (WNW) 00:55:40 437.405
50 SAT 28 Jul 00:59:29 01:01:47 16° 265° (W) 01:04:06 437.505
AIST 1 28 Jul 01:00:40 01:05:02 89° 244° (WSW) 01:09:24
QB50P2 28 Jul 01:08:42 01:12:31 32° 288° (WNW) 01:16:20 145.880/145.840
JUGNU 28 Jul 01:08:57 01:12:42 17° 167° (SSE) 01:16:26 437.505
SPROUT 28 Jul 01:09:03 01:13:01 38° 261° (W) 01:17:03 437.525
ESTCUBE 1 28 Jul 01:09:18 01:10:17 11° 267° (W) 01:11:16 437.505/2401.250
POLYITAN 1 28 Jul 01:11:22 01:15:10 31° 288° (WNW) 01:18:57 437.675
VELOX 1 28 Jul 01:21:28 01:23:31 13° 266° (W) 01:25:34 145.980
CUBEBUG 1 28 Jul 01:21:34 01:22:44 11° 267° (W) 01:23:54 437.445
ITUPSAT 1 28 Jul 01:34:10 01:36:38 14° 66° (ENE) 01:39:05 437.325
Gurwin Techsat 1B 28 Jul 01:49:55 01:52:15 13° 93° (E) 01:54:33 435.225
NANOSAT C BR1 28 Jul 01:56:06 01:57:15 11° 294° (WNW) 01:58:25 145.865
GONETS M04 28 Jul 01:56:36 02:04:01 29° 74° (ENE) 02:11:24
DUCHIFAT 1 28 Jul 02:00:15 02:01:07 11° 294° (WNW) 02:01:59 145.980
Oscar 19 28 Jul 02:00:27 02:05:21 42° 99° (E) 02:10:14 437.125/150
TISAT 1 28 Jul 02:01:31 02:05:29 42° 261° (W) 02:09:29 437.305
